| time (UTC) | temp C | wind direction | speed KPH | gust KPH | rain 1hr cm | rain 24hr cm | rain mn cm | humidity % | barometer mb |
| 20260508230650 | 16 | 304 | 0.0 | 0.0 | 0.00 | 0.00 | 0.00 | 62 | 1017.4 |
| 20260508224650 | 16 | 304 | 0.0 | 0.0 | 0.00 | 0.00 | 0.00 | 60 | 1017.3 |
| 20260508223658 | 16 | 304 | 0.0 | 0.0 | 0.00 | 0.00 | 0.00 | 58 | 1017.4 |
| 20260508222656 | 17 | 290 | 0.0 | 0.0 | 0.00 | 0.00 | 0.00 | 58 | 1017.5 |
| 20260508221656 | 17 | 291 | 0.0 | 0.0 | 0.00 | 0.00 | 0.00 | 58 | 1017.4 |
| 20260508220646 | 17 | 347 | 0.0 | 6.4 | 0.00 | 0.00 | 0.00 | 57 | 1017.2 |
| 20260508215647 | 17 | 226 | 0.0 | 3.2 | 0.00 | 0.00 | 0.00 | 59 | 1017.3 |
| 20260508213709 | 17 | 18 | 3.2 | 4.8 | 0.00 | 0.00 | 0.00 | 54 | 1017.3 |
| 20260508212650 | 17 | 331 | 0.0 | 3.2 | 0.00 | 0.00 | 0.00 | 55 | 1017.0 |
| 20260508211706 | 18 | 321 | 0.0 | 11.3 | 0.00 | 0.00 | 0.00 | 53 | 1016.9 |
| 20260508210658 | 18 | 233 | 1.6 | 6.4 | 0.00 | 0.00 | 0.00 | 54 | 1016.9 |
| 20260508205653 | 18 | 242 | 0.0 | 4.8 | 0.00 | 0.00 | 0.00 | 55 | 1017.1 |
| 20260508204647 | 18 | 217 | 0.0 | 6.4 | 0.00 | 0.00 | 0.00 | 53 | 1017.1 |
| 20260508203654 | 18 | 5 | 0.0 | 0.0 | 0.00 | 0.00 | 0.00 | 51 | 1017.2 |
| 20260508202704 | 18 | 5 | 0.0 | 0.0 | 0.00 | 0.00 | 0.00 | 57 | 1017.2 |
| 20260508201709 | 18 | 358 | 0.0 | 0.0 | 0.00 | 0.00 | 0.00 | 54 | 1017.3 |
| 20260508200657 | 17 | 276 | 0.0 | 0.0 | 0.00 | 0.00 | 0.00 | 55 | 1017.6 |
| 20260508194709 | 17 | 276 | 0.0 | 0.0 | 0.00 | 0.00 | 0.00 | 52 | 1017.7 |
| 20260508193659 | 18 | 276 | 0.0 | 6.4 | 0.00 | 0.00 | 0.00 | 53 | 1017.9 |
| 20260508192700 | 17 | 290 | 0.0 | 11.3 | 0.00 | 0.00 | 0.00 | 54 | 1018.2 |
| 20260508191711 | 18 | 0 | 1.6 | 4.8 | 0.00 | 0.00 | 0.00 | 50 | 1018.0 |
| 20260508190654 | 18 | 342 | 3.2 | 9.7 | 0.00 | 0.00 | 0.00 | 53 | 1018.5 |
| 20260508185710 | 18 | 177 | 3.2 | 8.0 | 0.00 | 0.00 | 0.00 | 50 | 1018.4 |
| 20260508184654 | 17 | 355 | 0.0 | 6.4 | 0.00 | 0.00 | 0.00 | 52 | 1018.5 |
| 20260508183708 | 17 | 352 | 4.8 | 11.3 | 0.00 | 0.00 | 0.00 | 53 | 1018.5 |
| 20260508182651 | 17 | 296 | 0.0 | 9.7 | 0.00 | 0.00 | 0.00 | 52 | 1018.7 |
| 20260508181702 | 17 | 318 | 4.8 | 9.7 | 0.00 | 0.00 | 0.00 | 53 | 1018.7 |
| 20260508180658 | 16 | 134 | 1.6 | 6.4 | 0.00 | 0.00 | 0.00 | 52 | 1018.7 |
| 20260508175656 | 16 | 289 | 4.8 | 8.0 | 0.00 | 0.00 | 0.00 | 58 | 1018.8 |
| 20260508174711 | 16 | 156 | 1.6 | 8.0 | 0.00 | 0.00 | 0.00 | 58 | 1019.1 |
| 20260508171645 | 15 | 275 | 0.0 | 4.8 | 0.00 | 0.00 | 0.00 | 56 | 1019.3 |
| 20260508170655 | 15 | 259 | 0.0 | 0.0 | 0.00 | 0.00 | 0.00 | 57 | 1019.2 |
| 20260508163704 | 13 | 329 | 0.0 | 0.0 | 0.00 | 0.00 | 0.00 | 58 | 1019.8 |
| 20260508162707 | 13 | 245 | 0.0 | 0.0 | 0.00 | 0.00 | 0.00 | 56 | 1019.8 |
| 20260508161649 | 13 | 331 | 0.0 | 0.0 | 0.00 | 0.00 | 0.00 | 56 | 1019.9 |
| 20260508160637 | 12 | 277 | 0.0 | 0.0 | 0.00 | 0.00 | 0.00 | 60 | 1020.1 |
| 20260508154654 | 12 | 273 | 0.0 | 0.0 | 0.00 | 0.00 | 0.00 | 61 | 1020.4 |
| 20260508153700 | 12 | 280 | 0.0 | 0.0 | 0.00 | 0.00 | 0.00 | 65 | 1020.5 |
| 20260508152701 | 11 | 288 | 0.0 | 0.0 | 0.00 | 0.00 | 0.00 | 66 | 1020.5 |
| 20260508150654 | 11 | 270 | 0.0 | 0.0 | 0.00 | 0.00 | 0.00 | 68 | 1020.5 |
| 20260508145652 | 10 | 213 | 0.0 | 0.0 | 0.00 | 0.00 | 0.00 | 69 | 1020.5 |
| 20260508143654 | 9 | 195 | 0.0 | 0.0 | 0.00 | 0.00 | 0.00 | 74 | 1020.7 |
| 20260508142703 | 9 | 195 | 0.0 | 0.0 | 0.00 | 0.00 | 0.00 | 78 | 1020.8 |
| 20260508141712 | 8 | 189 | 0.0 | 0.0 | 0.00 | 0.00 | 0.00 | 81 | 1020.9 |
| 20260508140703 | 8 | 187 | 0.0 | 0.0 | 0.00 | 0.00 | 0.00 | 85 | 1020.8 |
| 20260508135716 | 8 | 187 | 0.0 | 0.0 | 0.00 | 0.00 | 0.00 | 89 | 1020.8 |
| 20260508134645 | 7 | 130 | 0.0 | 0.0 | 0.00 | 0.00 | 0.00 | 90 | 1020.9 |
| 20260508133653 | 7 | 123 | 0.0 | 0.0 | 0.00 | 0.00 | 0.00 | 93 | 1020.8 |
| 20260508132707 | 7 | 123 | 0.0 | 0.0 | 0.00 | 0.00 | 0.00 | 94 | 1020.9 |
| 20260508131659 | 7 | 113 | 0.0 | 0.0 | 0.00 | 0.00 | 0.00 | 94 | 1020.9 |
| 20260508125706 | 6 | 111 | 0.0 | 0.0 | 0.00 | 0.00 | 0.00 | 95 | 1020.8 |
| 20260508124703 | 6 | 88 | 0.0 | 3.2 | 0.00 | 0.00 | 0.00 | 94 | 1020.7 |
| 20260508123714 | 6 | 65 | 0.0 | 0.0 | 0.00 | 0.00 | 0.00 | 92 | 1020.7 |
| 20260508122659 | 5 | 65 | 0.0 | 0.0 | 0.00 | 0.00 | 0.00 | 91 | 1020.5 |
| 20260508120722 | 5 | 65 | 0.0 | 0.0 | 0.00 | 0.13 | 0.00 | 89 | 1020.4 |
| 20260508114725 | 5 | 65 | 0.0 | 0.0 | 0.00 | 0.13 | 0.00 | 88 | 1020.1 |
| 20260508113719 | 5 | 65 | 0.0 | 0.0 | 0.00 | 0.13 | 0.00 | 87 | 1019.9 |
| 20260508112704 | 5 | 65 | 0.0 | 0.0 | 0.00 | 0.13 | 0.00 | 87 | 1019.8 |
| 20260508111719 | 5 | 65 | 0.0 | 0.0 | 0.00 | 0.61 | 0.00 | 86 | 1019.7 |
| 20260508110715 | 5 | 65 | 1.6 | 1.6 | 0.00 | 0.61 | 0.00 | 86 | 1019.5 |
| 20260508105657 | 5 | 65 | 0.0 | 3.2 | 0.00 | 0.61 | 0.00 | 85 | 1019.3 |
| 20260508103723 | 6 | 65 | 0.0 | 3.2 | 0.00 | 0.61 | 0.00 | 85 | 1019.1 |
| 20260508102713 | 6 | 65 | 0.0 | 6.4 | 0.00 | 0.61 | 0.00 | 84 | 1018.9 |
| 20260508101722 | 6 | 52 | 1.6 | 4.8 | 0.00 | 0.64 | 0.00 | 84 | 1018.8 |
| 20260508100702 | 6 | 47 | 0.0 | 4.8 | 0.00 | 0.64 | 0.00 | 83 | 1018.7 |
| 20260508095659 | 6 | 49 | 0.0 | 0.0 | 0.00 | 0.64 | 0.00 | 84 | 1018.6 |
| 20260508094723 | 6 | 49 | 0.0 | 1.6 | 0.00 | 0.64 | 0.00 | 83 | 1018.5 |
| 20260508093722 | 6 | 50 | 0.0 | 0.0 | 0.00 | 0.64 | 0.00 | 83 | 1018.5 |
| 20260508092658 | 6 | 50 | 1.6 | 3.2 | 0.00 | 0.64 | 0.00 | 82 | 1018.4 |
| 20260508091703 | 6 | 50 | 1.6 | 4.8 | 0.00 | 0.64 | 0.00 | 82 | 1018.4 |
| 20260508090716 | 6 | 50 | 0.0 | 6.4 | 0.00 | 0.64 | 0.00 | 82 | 1018.4 |
| 20260508085715 | 7 | 45 | 0.0 | 0.0 | 0.00 | 0.64 | 0.00 | 82 | 1018.4 |
| 20260508084722 | 7 | 45 | 0.0 | 3.2 | 0.00 | 0.64 | 0.00 | 82 | 1018.4 |
| 20260508080719 | 7 | 85 | 0.0 | 0.0 | 0.00 | 0.64 | 0.00 | 78 | 1018.1 |
| 20260508075711 | 7 | 85 | 0.0 | 0.0 | 0.00 | 0.64 | 0.00 | 76 | 1018.0 |
| 20260508074717 | 7 | 85 | 0.0 | 0.0 | 0.00 | 0.64 | 0.00 | 76 | 1017.8 |
| 20260508073730 | 8 | 85 | 0.0 | 0.0 | 0.00 | 0.64 | 0.00 | 75 | 1017.9 |
| 20260508072659 | 8 | 85 | 0.0 | 0.0 | 0.00 | 0.64 | 0.00 | 74 | 1017.6 |
| 20260508071722 | 8 | 84 | 0.0 | 0.0 | 0.00 | 0.64 | 0.00 | 76 | 1017.7 |
| 20260508070702 | 8 | 85 | 0.0 | 3.2 | 0.00 | 0.64 | 0.00 | 76 | 1017.7 |
| 20260508064731 | 9 | 84 | 0.0 | 3.2 | 0.00 | 0.64 | 0.00 | 73 | 1017.6 |
| 20260508063726 | 9 | 86 | 0.0 | 0.0 | 0.00 | 0.64 | 0.00 | 71 | 1017.6 |
| 20260508062733 | 10 | 86 | 0.0 | 0.0 | 0.00 | 0.64 | 0.00 | 71 | 1017.6 |
| 20260508060702 | 10 | 86 | 0.0 | 0.0 | 0.00 | 0.64 | 0.00 | 68 | 1017.4 |
| 20260508053651 | 11 | 146 | 0.0 | 11.3 | 0.00 | 0.64 | 0.00 | 67 | 1017.6 |
| 20260508052701 | 11 | 44 | 6.4 | 17.7 | 0.00 | 0.64 | 0.00 | 63 | 1017.5 |
| 20260508051709 | 10 | 71 | 6.4 | 12.9 | 0.00 | 0.97 | 0.00 | 65 | 1017.5 |
| 20260508050703 | 11 | 166 | 0.0 | 6.4 | 0.00 | 0.97 | 0.00 | 68 | 1017.7 |
| 20260508043659 | 11 | 243 | 8.0 | 17.7 | 0.00 | 0.97 | 0.00 | 63 | 1017.4 |
| 20260508042657 | 11 | 272 | 8.0 | 16.1 | 0.00 | 0.97 | 0.00 | 63 | 1017.4 |
| 20260508040656 | 11 | 276 | 4.8 | 14.5 | 0.00 | 1.04 | 0.00 | 65 | 1017.3 |
| 20260508034649 | 11 | 354 | 1.6 | 12.9 | 0.00 | 1.04 | 1.02 | 68 | 1017.5 |
| 20260508033721 | 11 | 355 | 1.6 | 17.7 | 0.00 | 1.04 | 1.02 | 68 | 1017.7 |
| 20260508032650 | 10 | 344 | 4.8 | 9.7 | 0.00 | 1.04 | 1.02 | 70 | 1017.8 |
| 20260508031714 | 10 | 279 | 1.6 | 11.3 | 0.00 | 1.04 | 1.02 | 73 | 1017.9 |
| 20260508030711 | 10 | 193 | 1.6 | 6.4 | 0.00 | 1.04 | 1.02 | 76 | 1017.9 |
| 20260508025650 | 10 | 125 | 0.0 | 3.2 | 0.00 | 1.04 | 1.02 | 77 | 1018.1 |
| 20260508024712 | 10 | 118 | 0.0 | 6.4 | 0.00 | 1.04 | 1.02 | 79 | 1017.7 |
| 20260508023707 | 10 | 203 | 0.0 | 4.8 | 0.00 | 1.04 | 1.02 | 79 | 1017.7 |
| 20260508022658 | 10 | 234 | 3.2 | 8.0 | 0.00 | 1.04 | 1.02 | 79 | 1017.5 |
| 20260508021721 | 10 | 65 | 0.0 | 3.2 | 0.00 | 1.12 | 1.02 | 78 | 1017.5 |
| 20260508020654 | 10 | 0 | 0.0 | 0.0 | 0.00 | 1.12 | 1.02 | 78 | 1017.4 |
| 20260508015708 | 10 | 0 | 0.0 | 8.0 | 0.00 | 1.12 | 1.02 | 77 | 1017.4 |
| 20260508014651 | 10 | 164 | 0.0 | 3.2 | 0.00 | 1.12 | 1.02 | 77 | 1017.1 |
| 20260508013700 | 10 | 173 | 0.0 | 0.0 | 0.00 | 1.12 | 1.02 | 77 | 1017.0 |
| 20260508012653 | 10 | 173 | 0.0 | 4.8 | 0.00 | 1.12 | 1.02 | 76 | 1016.8 |
| 20260508011718 | 11 | 198 | 0.0 | 0.0 | 0.00 | 1.30 | 1.02 | 75 | 1016.6 |
| 20260508010659 | 11 | 199 | 0.0 | 0.0 | 0.00 | 1.30 | 1.02 | 73 | 1016.6 |
| 20260508005700 | 11 | 198 | 0.0 | 0.0 | 0.00 | 1.30 | 1.02 | 73 | 1016.6 |
| 20260508004707 | 11 | 198 | 0.0 | 0.0 | 0.00 | 1.30 | 1.02 | 71 | 1016.6 |
| 20260508002702 | 11 | 198 | 3.2 | 11.3 | 0.00 | 1.30 | 1.02 | 71 | 1016.4 |
| 20260508001710 | 12 | 158 | 1.6 | 9.7 | 0.00 | 1.65 | 1.02 | 70 | 1016.2 |
| 20260508000701 | 12 | 0 | 0.0 | 12.9 | 0.00 | 1.65 | 1.02 | 66 | 1016.0 |
| 20260507235716 | 12 | 26 | 8.0 | 14.5 | 0.00 | 1.65 | 1.02 | 66 | 1016.1 |
| 20260507234714 | 12 | 296 | 4.8 | 14.5 | 0.00 | 1.65 | 1.02 | 68 | 1015.9 |
| 20260507233709 | 12 | 152 | 0.0 | 17.7 | 0.00 | 1.65 | 1.02 | 68 | 1015.8 |
| 20260507232715 | 12 | 36 | 6.4 | 19.3 | 0.00 | 1.65 | 1.02 | 65 | 1015.5 |
| 20260507231706 | 13 | 313 | 0.0 | 11.3 | 0.00 | 1.70 | 1.02 | 71 | 1015.4 |